Year,Month,Day,Hour,Minute,Value (Times are PST for temperature in C)
2012,10,14,12,22,14.20
2012,10,14,12,23,14.20
2012,10,14,12,24,14.20
2012,10,14,12,25,14.20
2012,10,14,12,26,14.20
2012,10,14,12,27,14.20
2012,10,14,12,28,14.30
2012,10,14,12,29,14.30
2012,10,14,12,30,14.30
2012,10,14,12,31,14.30
2012,10,14,12,32,14.30
2012,10,14,12,33,14.40
2012,10,14,12,34,14.40
2012,10,14,12,35,14.40
2012,10,14,12,36,14.40
2012,10,14,12,37,14.40
2012,10,14,12,38,14.40
2012,10,14,12,39,14.40
2012,10,14,12,40,14.40
2012,10,14,12,41,14.50
2012,10,14,12,42,14.60
2012,10,14,12,43,14.60
2012,10,14,12,44,14.60
2012,10,14,12,45,14.60
2012,10,14,12,46,14.60
2012,10,14,12,47,14.70
2012,10,14,12,48,14.70
2012,10,14,12,49,14.70
2012,10,14,12,50,14.70
2012,10,14,12,51,14.70
2012,10,14,12,52,14.70
2012,10,14,12,53,14.70
2012,10,14,12,54,14.70
2012,10,14,12,55,14.70
2012,10,14,12,56,14.70
2012,10,14,12,57,14.80
2012,10,14,12,58,14.70
2012,10,14,12,59,14.70
2012,10,14,13,00,14.70
2012,10,14,13,01,14.70
2012,10,14,13,02,14.70
2012,10,14,13,03,14.70
2012,10,14,13,04,14.70
2012,10,14,13,05,14.70
2012,10,14,13,06,14.70
2012,10,14,13,07,14.70
2012,10,14,13,08,14.70
2012,10,14,13,09,14.70
2012,10,14,13,10,14.70
2012,10,14,13,11,14.70
2012,10,14,13,12,14.70
2012,10,14,13,13,14.70
2012,10,14,13,14,14.70
2012,10,14,13,15,14.70
2012,10,14,13,16,14.70
2012,10,14,13,17,14.70
2012,10,14,13,18,14.70
2012,10,14,13,19,14.70
2012,10,14,13,20,14.70
2012,10,14,13,21,14.70
2012,10,14,13,22,14.70
2012,10,14,13,23,14.70
2012,10,14,13,24,14.70
2012,10,14,13,25,14.70
2012,10,14,13,26,14.80
2012,10,14,13,27,14.80
2012,10,14,13,28,14.80
2012,10,14,13,29,14.80
2012,10,14,13,30,14.90
2012,10,14,13,31,14.90
2012,10,14,13,32,15.00
2012,10,14,13,33,15.00
2012,10,14,13,34,15.00
2012,10,14,13,35,15.00
2012,10,14,13,36,15.00
2012,10,14,13,37,15.10
2012,10,14,13,38,15.20
2012,10,14,13,39,15.20
2012,10,14,13,40,15.30
2012,10,14,13,41,15.30
2012,10,14,13,42,15.40
2012,10,14,13,43,15.40
2012,10,14,13,44,15.50
2012,10,14,13,45,15.50
2012,10,14,13,46,15.60
2012,10,14,13,47,15.60
2012,10,14,13,48,15.70
2012,10,14,13,49,15.70
2012,10,14,13,50,15.70
2012,10,14,13,51,15.70
2012,10,14,13,52,15.70
2012,10,14,13,53,15.70
2012,10,14,13,54,15.70
2012,10,14,13,55,15.70
2012,10,14,13,56,15.70
2012,10,14,13,57,15.70
2012,10,14,13,58,15.70
2012,10,14,13,59,15.70
2012,10,14,14,00,15.70
2012,10,14,14,01,15.70
2012,10,14,14,02,15.70
2012,10,14,14,03,15.70
2012,10,14,14,04,15.70
2012,10,14,14,05,15.70
2012,10,14,14,06,15.70
2012,10,14,14,07,15.80
2012,10,14,14,08,15.80
2012,10,14,14,09,15.80
2012,10,14,14,10,15.80
2012,10,14,14,11,15.80
2012,10,14,14,12,15.80
2012,10,14,14,13,15.80
2012,10,14,14,14,15.80
2012,10,14,14,15,15.80
2012,10,14,14,16,15.80
2012,10,14,14,17,15.90
2012,10,14,14,18,15.90
2012,10,14,14,19,15.90
2012,10,14,14,20,16.00
2012,10,14,14,21,16.00
2012,10,14,14,22,16.00
2012,10,14,14,23,16.00
2012,10,14,14,24,16.00
2012,10,14,14,25,16.10
2012,10,14,14,26,16.10
2012,10,14,14,27,16.10
2012,10,14,14,28,16.10
2012,10,14,14,29,16.00
2012,10,14,14,30,16.00
2012,10,14,14,31,15.90
2012,10,14,14,32,15.90
2012,10,14,14,33,15.90
2012,10,14,14,34,15.80
2012,10,14,14,35,15.80
2012,10,14,14,36,15.70
2012,10,14,14,37,15.60
2012,10,14,14,38,15.60
2012,10,14,14,39,15.50
2012,10,14,14,40,15.40
2012,10,14,14,41,15.30
2012,10,14,14,42,15.30
2012,10,14,14,43,15.20
2012,10,14,14,44,15.10
2012,10,14,14,45,15.10
2012,10,14,14,46,15.10
2012,10,14,14,47,15.10
2012,10,14,14,48,15.10
2012,10,14,14,49,15.10
2012,10,14,14,50,15.10
2012,10,14,14,51,15.10
2012,10,14,14,52,15.20
2012,10,14,14,53,15.20
2012,10,14,14,54,15.20
2012,10,14,14,55,15.20
2012,10,14,14,56,15.20
2012,10,14,14,57,15.30
2012,10,14,14,58,15.30
2012,10,14,14,59,15.30
2012,10,14,15,00,15.40
2012,10,14,15,01,15.40
2012,10,14,15,02,15.40
2012,10,14,15,03,15.40
2012,10,14,15,04,15.40
2012,10,14,15,05,15.50
2012,10,14,15,06,15.50
2012,10,14,15,07,15.50
2012,10,14,15,08,15.50
2012,10,14,15,09,15.50
2012,10,14,15,10,15.50
2012,10,14,15,11,15.50
2012,10,14,15,12,15.60
2012,10,14,15,13,15.60
2012,10,14,15,14,15.60
2012,10,14,15,15,15.60
2012,10,14,15,16,15.60
2012,10,14,15,17,15.60
2012,10,14,15,18,15.60
2012,10,14,15,19,15.60
2012,10,14,15,20,15.60
2012,10,14,15,21,15.60
2012,10,14,15,22,15.60
2012,10,14,15,23,15.60
2012,10,14,15,24,15.50
2012,10,14,15,25,15.50
2012,10,14,15,26,15.40
2012,10,14,15,27,15.40
2012,10,14,15,28,15.40
2012,10,14,15,29,15.40
2012,10,14,15,30,15.40
2012,10,14,15,31,15.30
2012,10,14,15,32,15.30
2012,10,14,15,33,15.30
2012,10,14,15,34,15.30
2012,10,14,15,35,15.30
2012,10,14,15,36,15.30
2012,10,14,15,37,15.30
2012,10,14,15,38,15.20
2012,10,14,15,39,15.20
2012,10,14,15,40,15.20
2012,10,14,15,41,15.20
2012,10,14,15,42,15.20
2012,10,14,15,43,15.20
2012,10,14,15,44,15.20
2012,10,14,15,45,15.20
2012,10,14,15,46,15.20
2012,10,14,15,47,15.20
2012,10,14,15,48,15.20
2012,10,14,15,49,15.20
2012,10,14,15,50,15.20
2012,10,14,15,51,15.20
2012,10,14,15,52,15.20
2012,10,14,15,53,15.20
2012,10,14,15,54,15.20
2012,10,14,15,55,15.20
2012,10,14,15,56,15.20
2012,10,14,15,57,15.20
2012,10,14,15,58,15.20
2012,10,14,15,59,15.20
2012,10,14,16,00,15.20
2012,10,14,16,01,15.20
2012,10,14,16,02,15.20
2012,10,14,16,03,15.20
2012,10,14,16,04,15.20
2012,10,14,16,05,15.20
2012,10,14,16,06,15.20
2012,10,14,16,07,15.20
2012,10,14,16,08,15.20
2012,10,14,16,09,15.20
2012,10,14,16,10,15.20
2012,10,14,16,11,15.20
2012,10,14,16,12,15.20
2012,10,14,16,13,15.20
2012,10,14,16,14,15.20
2012,10,14,16,15,15.20
2012,10,14,16,16,15.30
2012,10,14,16,17,15.30
2012,10,14,16,18,15.30
2012,10,14,16,19,15.20
2012,10,14,16,20,15.20
2012,10,14,16,21,15.20
2012,10,14,16,22,15.20
2012,10,14,16,23,15.20
2012,10,14,16,24,15.20
2012,10,14,16,25,15.20
2012,10,14,16,26,15.20
2012,10,14,16,27,15.20
2012,10,14,16,28,15.20
2012,10,14,16,29,15.20
2012,10,14,16,30,15.10
2012,10,14,16,31,15.10
2012,10,14,16,32,15.10
2012,10,14,16,33,15.10
2012,10,14,16,34,15.10
2012,10,14,16,35,15.10
2012,10,14,16,36,15.10
2012,10,14,16,37,15.10
2012,10,14,16,38,15.10
2012,10,14,16,39,15.10
2012,10,14,16,40,15.10
2012,10,14,16,41,15.10
2012,10,14,16,42,15.10
2012,10,14,16,43,15.10
2012,10,14,16,44,15.10
2012,10,14,16,45,15.10
2012,10,14,16,46,15.10
2012,10,14,16,47,15.00
2012,10,14,16,48,15.00
2012,10,14,16,49,15.00
2012,10,14,16,50,15.00
2012,10,14,16,51,15.00
2012,10,14,16,52,15.00
2012,10,14,16,53,15.00
2012,10,14,16,54,15.00
2012,10,14,16,55,15.00
2012,10,14,16,56,15.10
2012,10,14,16,57,15.10
2012,10,14,16,58,15.00
2012,10,14,16,59,15.00
2012,10,14,17,00,15.00
2012,10,14,17,01,15.00
2012,10,14,17,02,15.00
2012,10,14,17,03,15.00
2012,10,14,17,04,15.00
2012,10,14,17,05,15.00
2012,10,14,17,06,15.00
2012,10,14,17,07,15.00
2012,10,14,17,08,15.00
2012,10,14,17,09,15.00
2012,10,14,17,10,15.00
2012,10,14,17,11,15.00
2012,10,14,17,12,15.00
2012,10,14,17,13,15.00
2012,10,14,17,14,15.00
2012,10,14,17,15,15.10
2012,10,14,17,16,15.10
2012,10,14,17,17,15.10
2012,10,14,17,18,15.10
2012,10,14,17,19,15.10
2012,10,14,17,20,15.10
2012,10,14,17,21,15.00
2012,10,14,17,22,15.00
2012,10,14,17,23,15.00
2012,10,14,17,24,15.00
2012,10,14,17,25,15.00
2012,10,14,17,26,15.00
2012,10,14,17,27,15.00
2012,10,14,17,28,15.00
2012,10,14,17,29,15.00
2012,10,14,17,30,15.00
2012,10,14,17,31,15.00
2012,10,14,17,32,15.00
2012,10,14,17,33,15.00
2012,10,14,17,34,14.90
2012,10,14,17,35,14.90
2012,10,14,17,36,14.90
2012,10,14,17,37,14.90
2012,10,14,17,38,14.90
2012,10,14,17,39,14.90
2012,10,14,17,40,14.90
2012,10,14,17,41,14.90
2012,10,14,17,42,14.80
2012,10,14,17,43,14.80
2012,10,14,17,44,14.80
2012,10,14,17,45,14.80
2012,10,14,17,46,14.80
2012,10,14,17,47,14.80
2012,10,14,17,48,14.80
2012,10,14,17,49,14.80
2012,10,14,17,50,14.80
2012,10,14,17,51,14.80
2012,10,14,17,52,14.80
2012,10,14,17,53,14.80
2012,10,14,17,54,14.80
2012,10,14,17,55,14.80
2012,10,14,17,56,14.80
2012,10,14,17,57,14.80
2012,10,14,17,58,14.80
2012,10,14,17,59,14.80
2012,10,14,18,00,14.80
2012,10,14,18,01,14.80
2012,10,14,18,02,14.80
2012,10,14,18,03,14.80
2012,10,14,18,04,14.70
2012,10,14,18,05,14.70
2012,10,14,18,06,14.70
2012,10,14,18,07,14.70
2012,10,14,18,08,14.70
2012,10,14,18,09,14.70
2012,10,14,18,10,14.70
2012,10,14,18,11,14.60
2012,10,14,18,12,14.60
2012,10,14,18,13,14.60
2012,10,14,18,14,14.60
2012,10,14,18,15,14.60
2012,10,14,18,16,14.50
2012,10,14,18,17,14.50
2012,10,14,18,18,14.50
2012,10,14,18,19,14.50
2012,10,14,18,20,14.40
2012,10,14,18,21,14.40
2012,10,14,18,22,14.40
2012,10,14,18,23,14.40
2012,10,14,18,24,14.40
2012,10,14,18,25,14.40
2012,10,14,18,26,14.30
2012,10,14,18,27,14.30
2012,10,14,18,28,14.30
2012,10,14,18,29,14.30
2012,10,14,18,30,14.30
2012,10,14,18,31,14.30
2012,10,14,18,32,14.30
2012,10,14,18,33,14.30
2012,10,14,18,34,14.20
2012,10,14,18,35,14.20
2012,10,14,18,36,14.20
2012,10,14,18,37,14.20
2012,10,14,18,38,14.10
2012,10,14,18,39,14.10
2012,10,14,18,40,14.10
2012,10,14,18,41,14.10
2012,10,14,18,42,14.10
2012,10,14,18,43,14.10
2012,10,14,18,44,14.00
2012,10,14,18,45,14.00
2012,10,14,18,46,14.00
2012,10,14,18,47,14.00
2012,10,14,18,48,14.00
2012,10,14,18,49,14.00
2012,10,14,18,50,14.00
2012,10,14,18,51,14.00
2012,10,14,18,52,14.00
2012,10,14,18,53,14.00
2012,10,14,18,54,14.00
2012,10,14,18,55,14.00
2012,10,14,18,56,14.00
2012,10,14,18,57,13.90
2012,10,14,18,58,13.90
2012,10,14,18,59,13.90
2012,10,14,19,00,13.90
2012,10,14,19,01,13.90
2012,10,14,19,02,13.90
2012,10,14,19,03,13.90
2012,10,14,19,04,13.90
2012,10,14,19,05,13.90
2012,10,14,19,06,13.90
2012,10,14,19,07,13.80
2012,10,14,19,08,13.80
2012,10,14,19,09,13.80
2012,10,14,19,10,13.80
2012,10,14,19,11,13.80
2012,10,14,19,12,13.80
2012,10,14,19,13,13.80
2012,10,14,19,14,13.80
2012,10,14,19,15,13.80
2012,10,14,19,16,13.80
2012,10,14,19,17,13.80
2012,10,14,19,18,13.80
2012,10,14,19,19,13.80
2012,10,14,19,20,13.80
2012,10,14,19,21,13.80
2012,10,14,19,22,13.80
2012,10,14,19,23,13.80
2012,10,14,19,24,13.80
2012,10,14,19,25,13.80
2012,10,14,19,26,13.80
2012,10,14,19,27,13.80
2012,10,14,19,28,13.80
2012,10,14,19,29,13.80
2012,10,14,19,30,13.80
2012,10,14,19,31,13.70
2012,10,14,19,32,13.70
2012,10,14,19,33,13.70
2012,10,14,19,34,13.70
2012,10,14,19,35,13.70
2012,10,14,19,36,13.70
2012,10,14,19,37,13.70
2012,10,14,19,38,13.70
2012,10,14,19,39,13.70
2012,10,14,19,40,13.70
2012,10,14,19,41,13.70
2012,10,14,19,42,13.70
2012,10,14,19,43,13.70
2012,10,14,19,44,13.60
2012,10,14,19,45,13.60
2012,10,14,19,46,13.60
2012,10,14,19,47,13.60
2012,10,14,19,48,13.60
2012,10,14,19,49,13.60
2012,10,14,19,50,13.60
2012,10,14,19,51,13.60
2012,10,14,19,52,13.60
2012,10,14,19,53,13.60
2012,10,14,19,54,13.60
2012,10,14,19,55,13.60
2012,10,14,19,56,13.60
2012,10,14,19,57,13.60
2012,10,14,19,58,13.60
2012,10,14,19,59,13.60
2012,10,14,20,00,13.50
2012,10,14,20,01,13.50
2012,10,14,20,02,13.50
2012,10,14,20,03,13.50
2012,10,14,20,04,13.40
2012,10,14,20,05,13.40
2012,10,14,20,06,13.40
2012,10,14,20,07,13.40
2012,10,14,20,08,13.30
2012,10,14,20,09,13.30
2012,10,14,20,10,13.30
2012,10,14,20,11,13.30
2012,10,14,20,12,13.20
2012,10,14,20,13,13.20
2012,10,14,20,14,13.20
2012,10,14,20,15,13.20
2012,10,14,20,16,13.10
2012,10,14,20,17,13.10
2012,10,14,20,18,13.10
2012,10,14,20,19,13.10
2012,10,14,20,20,13.00
2012,10,14,20,21,13.00
2012,10,14,20,22,13.00
2012,10,14,20,23,13.00
2012,10,14,20,24,13.00
2012,10,14,20,25,12.90
2012,10,14,20,26,12.90
2012,10,14,20,27,12.90
2012,10,14,20,28,12.90
2012,10,14,20,29,12.80
2012,10,14,20,30,12.80
2012,10,14,20,31,12.80
2012,10,14,20,32,12.80
2012,10,14,20,33,12.80
2012,10,14,20,34,12.80
2012,10,14,20,35,12.80
2012,10,14,20,36,12.80
2012,10,14,20,37,12.80
2012,10,14,20,38,12.80
2012,10,14,20,39,12.80
